Regional Weather Roundup
Issued by NWS

Home | Current Version | Previous Version | Graphics & Text | Print | Product List | Glossary Off
Versions: 1 2 3 4 5 6 7 8 9 10 11 12 13 14 15 16 17 18 19 20 21 22 23 24 25 26 27 28 29 30 31 32 33 34 35 36 37 38 39 40 41 42 43 44 45 46 47 48 49 50

000
ASUS45 KBOU 020607
RWRCO

WEATHER ROUNDUP FOR COLORADO
NATIONAL WEATHER SERVICE DENVER/BOULDER CO
1200 AM MDT WED SEP 02 2015

NOTE: "FAIR" INDICATES FEW OR NO CLOUDS BELOW 12000 FEET WITH NO
SIGNIFICANT WEATHER AND/OR OBSTRUCTIONS TO VISIBILITY.

COZ001>005-013-030-031-020700-
...NORTHWEST COLORADO...

CITY           SKY/WX    TMP DP  RH WIND       PRES   REMARKS
CRAIG          PTCLDY    56  44  64 SE5       30.21F
HAYDEN         NOT AVBL
MEEKER         PTCLDY    52  48  86 NE3       30.23S
MOUNT WERNER   NOT AVBL
STEAMBOAT SPGS PTCLDY    58  42  54 CALM      30.26F
WALDEN         MOCLDY    50  37  62 CALM      30.34S
$$

COZ006>008-011-020700-
...WEST CENTRAL VALLEYS...

CITY           SKY/WX    TMP DP  RH WIND       PRES   REMARKS
GRAND JUNCTION MOCLDY    64  52  64 NE5       30.14R
MONTROSE       MOCLDY    65  51  60 SE10      30.24S
EAGLE          PTCLDY    55  52  88 CALM      30.33R
RIFLE          PTCLDY    58  52  80 CALM      30.22S
DELTA          NOT AVBL
NUCLA          PTCLDY    64  46  52 SE7       30.25S
$$

COZ017>023-064>068-020700-
...SOUTHWEST COLORADO...

CITY           SKY/WX    TMP DP  RH WIND       PRES   REMARKS
DURANGO        PTCLDY    60  46  59 NE5       30.26R
CORTEZ         PTCLDY    60  45  57 CALM      30.21R
PAGOSA SPRINGS MOCLDY    59  41  50 CALM      30.34R
TELLURIDE      MOCLDY    53  49  86 SE7       30.46S
WOLF CREEK PAS NOT AVBL
$$

COZ009-010-012-014-032>034-037-058>063-020700-
...CENTRAL COLORADO...

CITY           SKY/WX    TMP DP  RH WIND       PRES   REMARKS
ASPEN          LGT RAIN  54  48  80 S20       30.38F
BUENA VISTA    CLOUDY    55  50  81 NW8       30.40R
COPPER MTN     HAZE      45  39  81 S8        30.64S VSB<1/4
BERTHOUD PASS  RAIN      36  27  69 NW13G29   30.67R
COTTONWOOD PAS LGT RAIN  54  45  71 W9G22     30.50R
GUNNISON       MOCLDY    55  48  76 N3        30.41S
KREMMLING      MOCLDY    54  46  76 CALM      30.34F
LEADVILLE      LGT RAIN  46  46 100 E3        30.52R
MONARCH PASS   MOCLDY    41  41 100 W21       30.73S FOG
SALIDA         CLOUDY    62  48  61 W3        30.42R
SUNLIGHT       PTCLDY    46  41  81 CALM      30.56S
WILKERSON PASS CLOUDY    45  41  87 SW12G17   30.59S
$$

COZ069>075-020700-
...SAN LUIS VALLEY/SANGRE DE CRISTO MOUNTAINS...

CITY           SKY/WX    TMP DP  RH WIND       PRES   REMARKS
ALAMOSA        PTCLDY    54  46  74 W5        30.33R
LA VETA PASS   PTCLDY    52  39  62 MISG      30.50R
SAGUACHE       CLOUDY    57  46  67 NW9       30.36S
$$

COZ035-036-038>040-020700-
...NORTHERN COLORADO FRONT RANGE...

CITY           SKY/WX    TMP DP  RH WIND       PRES   REMARKS
DENVER INTL AP MOCLDY    69  46  43 SW9       30.09F
DMNS CITY PARK   N/A     71  45  39 SE7       30.08S
AURORA         MOCLDY    69  45  43 S13       30.11F
FRONT RANGE AP NOT AVBL
ERIE MUNI ARPT PTCLDY    63  50  61 SW5       30.07S
BOULDER MUN AP PTCLDY    73  36  25 SW8       30.07F
CENTENNIAL     MOCLDY    71  43  36 SW13      30.13F
BROOMFIELD     PTCLDY    72  41  33 SW10      30.11S
FORT COLLINS   CLEAR     63  43  48 W3        30.08S
LONGMONT       CLEAR     64  45  49 CALM      30.08S
$$

COZ041-046-047-076>085-087-088-020700-
...PIKES PEAK/PALMER DIVIDE AND SOUTHERN FOOTHILLS...

CITY           SKY/WX    TMP DP  RH WIND       PRES   REMARKS
COLO. SPRINGS  MOCLDY    64  51  62 N5        30.21F
A. F. ACADEMY  MOCLDY    65  45  47 W6        30.22F
ELLICOTT       MOCLDY   N/A N/A N/A N5        30.19S
FALCON         MOCLDY    60  47  63 MISG      30.26F
FORT CARSON    MOCLDY    61  51  70 NW6       30.18S
LIMON          PTCLDY    66  49  54 W7        30.12S
MONUMENT HILL  MOCLDY    61  45  55 SW8       30.25F
TRINIDAD       CLEAR     66  46  48 W8        30.17R
$$

COZ042>045-048>051-090-091-020700-
...NORTHEAST COLORADO...

CITY           SKY/WX    TMP DP  RH WIND       PRES   REMARKS
GREELEY ARPT   CLEAR     63  48  59 CALM      30.06S
AKRON          CLEAR     67  48  50 SW10      30.05S
BURLINGTON     MOCLDY    67  58  72 SW7       30.04R
WRAY           CLOUDY    71  58  62 SW7       29.98S
STERLING       NOT AVBL
HOLYOKE        CLEAR     66  59  77 SW5       29.98S
FORT MORGAN    CLEAR     64  45  50 CALM      30.06R
$$

COZ086-089-092>099-020700-
...SOUTHEAST COLORADO...

CITY           SKY/WX    TMP DP  RH WIND       PRES   REMARKS
PUEBLO         MOCLDY    69  53  56 NW10      30.09F
LA JUNTA       MOCLDY    74  52  46 SE7       30.04F
LAMAR          PTCLDY    63  56  78 S8        30.00S
SPRINGFIELD      N/A     69  57  65 SW12G21   30.07S
$$




USA.gov is the U.S. government's official web portal to all federal, state and local government web resources and services.